TimeAKST,TemperatureF,Dew PointF,Humidity,Sea Level PressureIn,VisibilityMPH,Wind Direction,Wind SpeedMPH,Gust SpeedMPH,PrecipitationIn,Events,Conditions,WindDirDegrees,DateUTC
12:25 AM,60.8,59.0,94,29.56,6.0,SSE,6.9,-,0.00,Rain,Light Rain,160,2014-01-13 09:25:00
12:56 AM,61.0,59.0,93,29.59,9.0,SSE,5.8,-,0.01,Rain,Light Rain,150,2014-01-13 09:56:00
1:09 AM,60.8,59.0,94,29.60,10.0,Variable,6.9,-,0.00,Rain,Light Rain,0,2014-01-13 10:09:00
1:19 AM,62.6,60.8,94,29.61,4.0,South,6.9,-,0.01,Rain,Light Rain,180,2014-01-13 10:19:00
1:56 AM,59.9,57.9,93,29.65,10.0,Variable,5.8,-,0.01,,Overcast,0,2014-01-13 10:56:00
2:11 AM,62.6,60.8,94,29.66,4.0,Variable,5.8,-,0.01,Rain,Light Rain,0,2014-01-13 11:11:00
2:47 AM,62.6,60.8,94,29.68,10.0,South,4.6,-,0.01,,Overcast,170,2014-01-13 11:47:00
2:56 AM,62.6,60.8,94,29.69,10.0,Calm,Calm,-,N/A,,Overcast,0,2014-01-13 11:56:00
3:56 AM,63.9,59.9,87,29.74,8.0,Variable,6.9,-,0.00,Rain,Light Rain,0,2014-01-13 12:56:00
4:56 AM,72.0,70.0,93,29.79,10.0,SSE,9.2,-,0.01,,Mostly Cloudy,160,2014-01-13 13:56:00
5:56 AM,72.0,68.0,87,29.81,10.0,Calm,Calm,-,0.00,,Clear,0,2014-01-13 14:56:00
6:56 AM,66.9,65.8,96,29.84,10.0,Calm,Calm,-,0.00,,Clear,0,2014-01-13 15:56:00
7:56 AM,66.9,65.8,96,29.89,10.0,SSE,5.8,-,N/A,,Scattered Clouds,150,2014-01-13 16:56:00
8:47 AM,69.8,66.2,88,29.93,3.0,Calm,Calm,-,0.01,Rain,Light Rain,0,2014-01-13 17:47:00
8:56 AM,69.8,68.0,94,29.93,5.0,Calm,Calm,-,N/A,Rain,Light Rain,0,2014-01-13 17:56:00
9:04 AM,71.6,69.8,94,29.93,10.0,Calm,Calm,-,0.00,Rain,Light Rain,0,2014-01-13 18:04:00
9:56 AM,70.0,68.9,96,29.97,10.0,Calm,Calm,-,0.00,,Clear,0,2014-01-13 18:56:00
10:56 AM,64.9,63.9,96,29.99,10.0,Calm,Calm,-,N/A,,Clear,0,2014-01-13 19:56:00
11:56 AM,104.9,-9999,N/A,30.01,10.0,Calm,Calm,-,N/A,,Clear,0,2014-01-13 20:56:00
12:56 PM,120.9,-9999,N/A,30.02,10.0,Calm,Calm,-,N/A,,Scattered Clouds,0,2014-01-13 21:56:00
1:56 PM,110.8,-9999,N/A,30.02,10.0,Calm,Calm,-,N/A,,Mostly Cloudy,0,2014-01-13 22:56:00
2:56 PM,115.0,-9999,N/A,30.01,10.0,Calm,Calm,-,N/A,,Partly Cloudy,0,2014-01-13 23:56:00
3:56 PM,113.0,-9999,N/A,29.99,10.0,Calm,Calm,-,0.00,Rain,Light Rain,0,2014-01-14 00:56:00
4:15 PM,111.2,-9999,N/A,29.98,5.0,Calm,Calm,-,0.01,Rain,Light Rain,0,2014-01-14 01:15:00
4:25 PM,118.4,-9999,N/A,29.97,5.0,Calm,Calm,-,0.01,Rain,Light Rain,0,2014-01-14 01:25:00
4:56 PM,124.0,-9999,N/A,29.94,6.0,Variable,4.6,-,0.03,Rain,Light Rain,0,2014-01-14 01:56:00
5:56 PM,100.4,-9999,N/A,29.89,5.0,Variable,4.6,-,N/A,Rain,Light Rain,0,2014-01-14 02:56:00
6:56 PM,95.0,-9999,N/A,29.85,4.0,ESE,6.9,-,0.02,Rain,Light Rain,110,2014-01-14 03:56:00
7:56 PM,82.9,81.9,97,29.81,5.0,East,9.2,-,0.04,Rain,Light Rain,100,2014-01-14 04:56:00
8:56 PM,80.6,78.8,94,29.76,6.0,ESE,8.1,-,N/A,Rain,Light Rain,110,2014-01-14 05:56:00
9:42 PM,84.2,84.2,100,29.73,5.0,East,4.6,-,0.04,Rain,Light Rain,80,2014-01-14 06:42:00
9:56 PM,86.9,86.0,97,29.74,6.0,Variable,5.8,-,0.05,Rain,Light Rain,0,2014-01-14 06:56:00
10:20 PM,87.8,84.2,89,29.70,6.0,ENE,8.1,-,0.01,Rain,Light Rain,70,2014-01-14 07:20:00
10:32 PM,80.6,78.8,94,29.70,4.0,East,6.9,-,0.02,Rain,Light Rain,100,2014-01-14 07:32:00
10:56 PM,90.0,79.9,72,29.71,5.0,East,9.2,-,0.06,Rain,Light Rain,100,2014-01-14 07:56:00
11:06 PM,87.8,84.2,89,29.70,3.0,East,8.1,-,0.02,Rain,Rain,90,2014-01-14 08:06:00
11:14 PM,89.6,86.0,89,29.69,3.0,East,10.4,-,0.04,Rain,Rain,90,2014-01-14 08:14:00
11:24 PM,87.8,84.2,89,29.68,2.5,ENE,4.6,-,0.06,Rain,Rain,70,2014-01-14 08:24:00
11:31 PM,84.2,84.2,100,29.67,3.0,ENE,5.8,-,0.07,Rain,Rain,70,2014-01-14 08:31:00
11:56 PM,87.8,84.2,89,29.66,3.0,Variable,4.6,-,N/A,Rain,Rain,0,2014-01-14 08:56:00